Regional Weather Roundup
Issued by NWS Tiyan, Guam

Home | Current Version | Previous Version | Text Only | Print | Product List | Glossary On
Versions: 1 2 3 4 5 6 7 8 9 10 11 12 13 14 15 16 17 18 19 20 21 22 23 24 25 26 27
000
ASGM40 PGUM 232212
RWRGUM
WEATHER ROUNDUP FOR THE MARIANAS
NATIONAL WEATHER SERVICE TIYAN GU
800 AM CHST SAT JUN 24 2017

GUZ001>004-232300-
MARIANA ISLANDS-

CITY           SKY/WX    TMP DP  RH WIND       PRES   REMARKS
GUAM AIRPORT   SUNNY     81  79  94 SE6       29.84S
ANDERSEN AFB   MOSUNNY   82  77  83 SE9       29.86R HX  91
ROTA AIRPORT   MOSUNNY   81  75  83 E12       29.86R
TINIAN AP      PTSUNNY   82  77  83 E7        29.84R HX  91
SAIPAN AP      MOSUNNY   82  75  78 E13       29.85R

$$





USA.gov is the U.S. government's official web portal to all federal, state and local government web resources and services.